Home > Weather > Magdeburg > Past weeks

Flag for Germany Past Weather in Magdeburg, Saxony-Anhalt, Germany — Yesterday and Last 2 Weeks

Now
72 °F

Broken clouds.


Feels Like: 75 °F
Forecast: 63 / 75 °F
Wind: 6 mph from West

Location: Braunschweig Wolfsburg

Current Time: Jul 26, 2016 at 12:24:08 PM

Latest Report: Jul 26, 2016 at 11:50 AM


Visibility: N/A

Pressure: 30.15 "Hg

Humidity: 69%

Dew Point: 61 °F

Location of MagdeburgLocation

Past Weather in Magdeburg — Graph

°F

Magdeburg Temperature Yesterday

Maximum temperature yesterday: 84 °F (at 3:20 PM)
Minimum temperature yesterday: 63 °F (at 5:20 AM)
Average temperature yesterday: 77 °F

High & Low Weather Summary for the Past Weeks

 TemperatureHumidityPressure
High90 °F (Jul 20, 6:20 PM)100% (Jul 26, 6:50 AM)30.24 "Hg (Jul 26, 6:50 AM)
Low55 °F (Jul 14, 6:50 AM)31% (Jul 20, 3:50 PM)29.80 "Hg (Jul 11, 10:20 AM)
Average72 °F60%30.02 "Hg
* Reported Jul 11 10:20 AM — Jul 26 10:50 AM, Magdeburg, Weather by CustomWeather, © 2016

Note: Actual official high and low records may vary slightly from our data, if they occured in-between our weather recording intervals... More about our weather records

Advertising

Magdeburg Weather History for the Previous 24 Hours

Scroll right to see more
 ConditionsComfort  
Time TempWeatherWind HumidityBarometerVisibility
10:50 AM
Tue, Jul 26
70 °FPartly sunny.7 mph69%30.15 "HgN/A
10:20 AM70 °FPartly sunny.7 mph73%30.12 "HgN/A
9:50 AM72 °FBroken clouds.6 mph69%30.12 "HgN/A
9:20 AM70 °FScattered clouds.7 mph73%30.12 "HgN/A
8:50 AM68 °FPartly sunny.6 mph83%30.12 "HgN/A
8:20 AM68 °FBroken clouds.7 mph83%30.12 "HgN/A
7:50 AM66 °FPartly sunny.5 mph88%30.12 "HgN/A
7:20 AM66 °FOvercast.2 mph94%30.12 "HgN/A
6:50 AM64 °FClear.No wind100%30.09 "Hg6 mi
9:50 PM
Mon, Jul 25
73 °FSunny.7 mph74%30.07 "Hg10 mi
9:20 PM75 °FSunny.2 mph65%30.04 "Hg10 mi
8:50 PM79 °FSunny.2 mph54%30.04 "Hg10 mi
8:20 PM81 °FSunny.2 mph51%30.04 "Hg10 mi
7:50 PM79 °FPassing clouds.5 mph54%30.04 "HgN/A
7:20 PM81 °FPassing clouds.6 mph51%30.04 "HgN/A
6:50 PM81 °FPassing clouds.7 mph51%30.04 "HgN/A
6:20 PM82 °FPassing clouds.5 mph51%30.04 "HgN/A
5:50 PM82 °FPassing clouds.9 mph55%30.04 "HgN/A
5:20 PM82 °FPassing clouds.7 mph51%30.04 "HgN/A
4:50 PM82 °FPassing clouds.7 mph51%30.04 "HgN/A
4:20 PM84 °FPassing clouds.7 mph45%30.04 "HgN/A
3:20 PM84 °FPassing clouds.7 mph48%30.04 "HgN/A
2:50 PM82 °FPassing clouds.6 mph48%30.04 "HgN/A
2:20 PM82 °FPassing clouds.7 mph51%30.04 "HgN/A
1:50 PM82 °FPassing clouds.6 mph51%30.04 "HgN/A
1:20 PM82 °FPartly sunny.6 mph48%30.04 "HgN/A
12:50 PM82 °FPassing clouds.6 mph51%30.04 "HgN/A
12:20 PM82 °FPassing clouds.5 mph48%30.04 "HgN/A
Weather by CustomWeather, © 2016

See weather overviewHow to use our weather pages